Location: *
(51.8167°N, 12.5000°E)
Time: 00:35:43
(UTC+00:00)

SPOT 5 - Pass Details

Date: 16 September 2019
Orbit: 624 x 814 km, 98.3° (Epoch: 16 October)

Event Time Altitude Azimuth Distance (km) Brightness Sun altitude
Exits shadow 21:11:43 45° 298° (WNW) 975 3.8 -30.6°
Drops below altitude 10° 21:15:35 10° 337° (NNW) 2,251 6.3 -31.0°
Sets 21:18:01 0° 343° (NNW) 3,210 7.3 -31.2°
